Погода в Тоураке

Россия / Алтайский край     51°34′37″N   85°00′43″E
темп.,
°C
ветер,
м/с
пор.,
м/с
влажн.,
%
обл.,
%
осадки,
мм/ч
давл.,
гПа
погр.,
м
16 мая, вс
вс1601:00+8ю21795 0.0 102211
04:00+8ю228228 0.0 102221
07:00+9ю237611 0.0 102164
10:00+17юз12445 0.0 1019820
13:00+20зсз23325 0.0 10181848
16:00+20сз343743 0.0 10172353
19:00+18зсз35471 0.0 10151362
22:00+12ю22704 0.0 101613
17 мая, пн
пн1701:00+11ююз22746 0.1 101639
04:00+10ю347817 0.1 101556
07:00+11ююз247389 0.2 1015106
10:00+16з145286 0.0 10151000
13:00+15зсз246598 1.2 1015868
16:00+15зсз477090 1.3 10151252
19:00+14зсз257976 2.3 1017879
22:00+10ююз11915 0.1 101811
18 мая, вт
вт1801:00+9ю22945 0.1 101724
04:00+8ю229393 0.0 101735
07:00+10ююз24895 0.0 1016100
10:00+17ююз345411 0.0 1013674
13:00+20з584090 0.0 10102734
16:00+19з594785 0.1 10092220
19:00+17зюз3860100 0.6 10091033
22:00+10ю369024 3.8 1010107
19 мая, ср
ср1901:00+10ю3491100 4.8 100978
04:00+9ю358891 0.5 100796
07:00+10ююз3589100 0.9 1005120
10:00+13з2584100 0.8 1004437
13:00+13зсз3885100 3.2 10041013
16:00+13з51283100 2.6 10041469
19:00+7ссз2497100 4.6 1008565
22:00+5с3398100 0.4 1011352
20 мая, чт
чт2001:00+3с3499100 1.4 1012534
04:000с139429 0.7 1015253
07:00+1зсз118830 0.7 1016192
10:00+3сз2367100 0.2 10151454
13:00+3сз3574100 0.8 10161193
16:00+3сз487499 1.1 10161293
19:00+2сз487697 2.1 10181301
22:000сз249799 2.2 1021319